User: anonymous   Login
Location: Prairie State College
(41.5244°N, 87.6382°W)
Time: 21:37:01
(UTC-05:00)
Language:

Cosmos 1943 - Orbit

View from above orbital plane
View from above orbital plane
View from above satellite
View from above satellite

Ground track
Ground track

The orbit data is extracted from the following two-line orbital elements,

1 19119U 88039A   15208.19941124 -.00000274  00000-0 -11678-3 0  9997
2 19119 071.0043 112.7895 0010751 017.2905 144.9494 14.15027350404347
Epoch (UTC): 27 July 2015 04:47:09
Eccentricity: 0.0010751
inclination: 71.0043°
perigee height: 834 km
apogee height: 850 km
right ascension of ascending node: 112.7895°
argument of perigee: 17.2905°
revolutions per day: 14.15027350
mean anomaly at epoch: 144.9494°
orbit number at epoch: 40434

The dashed part of the orbit path shows where the satellite is in the earth's shadow,  

DLR